Flag for Spain Weather past 2 weeks in Pamplona, Spain

Now
54 °F

Partly sunny.


Feels Like: 50 °F
Forecast: 42 / 61 °F
Wind: 13 mph from North

Location: Pamplona / Noain

Current Time: Apr 28, 2015 at 2:07:43 PM

Latest Report: Apr 28, 2015 at 1:30 PM


Visibility: N/A

Pressure: 30.18 "Hg

Humidity: 54%

Dew point: 37 °F

Location of PamplonaLocation

Historic Weather in Pamplona — Graph

°F

Pamplona temperature yesterday

Maximum temperature yesterday: 57 °F (at 5:30 PM)
Minimum temperature yesterday: 48 °F (at 5:30 AM)
Average temperature yesterday: 52 °F

Past Weeks' High & Low Weather Summary

 TemperatureHumidityPressure
High79 °F (Apr 14, 3:30 PM)100% (Apr 16, 10:00 PM)30.42 "Hg (Apr 16, 10:00 PM)
Low39 °F (Apr 20, 7:30 AM)20% (Apr 14, 9:00 PM)29.68 "Hg (Apr 26, 3:00 PM)
Average58 °F65%30.04 "Hg
* Reported Apr 13 1:00 PM — Apr 28 1:00 PM, Pamplona, Weather by CustomWeather, © 2015

Note: Actual official high and low records may vary slightly from our data, if they occured in-between our weather recording intervals... More about our weather records

Advertising

Pamplona weather history for previous 24 hours

 ConditionsComfort  
Time TempWeatherWind HumidityBarometerVisibility
1:00 PM
Tue, Apr 28
55 °FScattered clouds.13 mph51%30.18 "HgN/A
12:30 PM54 °FScattered clouds.12 mph54%30.18 "HgN/A
12:00 PM52 °FPartly sunny.16 mph62%30.18 "HgN/A
11:30 AM50 °FPartly sunny.16 mph62%30.18 "HgN/A
11:00 AM50 °FPartly sunny.15 mph67%30.18 "HgN/A
10:30 AM48 °FScattered clouds.14 mph71%30.18 "HgN/A
10:00 AM48 °FBroken clouds.13 mph82%30.18 "HgN/A
9:30 AM48 °FPartly sunny.10 mph82%30.18 "HgN/A
9:00 AM46 °FPartly sunny.8 mph87%30.18 "HgN/A
8:30 AM45 °FSprinkles. Partly sunny.9 mph87%30.15 "Hg6 mi
8:00 AM45 °FPartly cloudy.5 mph87%30.15 "HgN/A
7:30 AM45 °FPartly cloudy.3 mph87%30.15 "HgN/A
7:00 AM45 °FPartly cloudy.5 mph87%30.12 "HgN/A
6:30 AM45 °FPassing clouds.2 mph87%30.12 "HgN/A
5:30 AM45 °FPassing clouds.3 mph93%30.12 "HgN/A
12:00 AM48 °FPassing clouds.9 mph76%30.07 "HgN/A
11:30 PM
Mon, Apr 27
48 °FPassing clouds.8 mph82%30.07 "HgN/A
11:00 PM50 °FPassing clouds.1 mph76%30.07 "HgN/A
10:30 PM50 °FPassing clouds.3 mph82%30.04 "HgN/A
10:00 PM50 °FPartly sunny.2 mph88%30.04 "HgN/A
9:30 PM50 °FLight rain. Partly sunny.8 mph82%30.01 "Hg6 mi
9:00 PM50 °FPartly sunny.6 mph88%30.01 "HgN/A
8:30 PM52 °FPartly sunny.14 mph77%29.98 "HgN/A
8:00 PM54 °FPartly sunny.10 mph72%29.98 "HgN/A
7:30 PM52 °FPartly sunny.14 mph77%29.95 "HgN/A
7:00 PM52 °FPartly sunny.13 mph82%29.95 "HgN/A
6:30 PM52 °FPartly sunny.10 mph82%29.95 "HgN/A
6:00 PM52 °FLight rain. Partly sunny.15 mph82%29.95 "HgN/A
5:30 PM57 °FPartly sunny.14 mph72%29.92 "HgN/A
5:00 PM55 °FPartly sunny.12 mph77%29.92 "HgN/A
4:30 PM55 °FPartly sunny.15 mph72%29.92 "HgN/A
4:00 PM55 °FPartly sunny.15 mph77%29.92 "HgN/A
3:30 PM55 °FLight rain. Partly sunny.16 mph77%29.89 "HgN/A
3:00 PM55 °FLight rain. Partly sunny.16 mph77%29.89 "HgN/A
2:30 PM55 °FLight rain. Partly sunny.12 mph77%29.89 "HgN/A
2:00 PM55 °FPartly sunny.15 mph72%29.86 "HgN/A
Weather by CustomWeather, © 2015

See weather overviewHow to use our weather pages